Wind_Speed
29 25 24 25 23 26 27 27 28 28 29 28 27 24 23 25 26 33 35 35 34 37 37 37 40 41 38 37 37 37 38 38 20 33 36 35 36 36 35 36 38 40 42
24 23 22 22 24 28 29 30 30 32 31 30 31 29 26 25 25 26 30 32 34 35 36 37 40 40 41 42 38 39 39 40 36 22 32 34 40 39 41 38 39 40 42
24 22 21 23 31 33 30 29 30 34 33 33 29 29 31 28 27 26 28 29 34 36 38 39 41 40 40 39 40 42 41 37 38 36 35 38 39 37 36 40 42 44 42
24 25 27 28 31 29 29 29 32 35 32 34 30 29 31 29 26 24 26 31 33 32 37 41 43 42 44 42 40 41 38 38 38 37 32 32 31 34 37 32 33 43 44
19 20 21 23 24 25 25 29 30 27 29 30 33 30 31 28 23 31 33 34 35 36 38 38 38 43 47 46 40 39 35 35 36 31 28 31 20 20 27 33 33 33 42
18 19 20 21 22 23 27 31 32 33 32 34 33 31 31 29 28 29 35 33 36 35 35 36 37 37 44 52 57 57 54 36 30 30 29 23 33 34 37 38 35 14 7
15 18 20 20 21 22 23 23 24 27 30 32 31 29 31 30 28 31 35 37 34 33 35 35 37 36 38 39 43 43 57 69 65 54 34 33 35 38 40 32 36 32 25
15 18 20 22 23 25 25 25 26 26 27 28 28 29 30 29 31 34 37 36 36 37 34 35 36 38 37 37 39 40 40 47 53 55 56 48 42 47 44 49 45 42 25
17 19 21 22 22 23 23 26 26 27 27 27 28 30 31 32 34 35 36 35 35 38 37 35 36 41 40 39 42 40 42 49 44 43 48 55 53 49 47 40 27 18 6
19 19 20 20 21 22 24 27 27 26 26 28 27 27 30 31 32 37 39 38 37 38 41 40 37 37 38 37 39 36 38 47 37 37 37 45 53 58 52 49 41 23 11
18 19 20 20 20 21 24 24 26 27 29 30 30 29 27 29 32 32 35 38 36 40 40 40 38 37 38 40 38 40 42 41 42 38 38 37 38 41 42 46 45 42 27
19 20 23 24 22 23 24 25 25 24 24 25 26 26 25 28 30 33 36 41 41 41 42 41 41 42 46 47 47 44 48 47 39 35 30 31 28 27 34 41 48 52 47
22 24 25 25 25 24 23 23 23 23 22 24 25 26 28 29 30 34 41 41 41 43 43 46 50 52 49 44 38 39 41 36 33 30 28 28 29 30 35 34 38 38 36
23 24 22 22 24 22 21 20 20 21 22 24 25 26 29 29 30 38 39 39 41 43 44 47 49 49 47 45 40 34 32 31 31 30 29 27 25 27 29 31 24 25 20
19 18 19 18 20 21 19 20 21 19 21 25 23 26 28 29 34 40 41 42 42 40 43 36 34 30 28 26 26 27 28 28 26 27 26 24 23 24 21 25 22 21 18
19 20 22 20 21 21 23 25 19 16 19 18 21 24 26 28 35 37 38 40 36 38 33 31 30 31 29 31 33 28 23 23 25 25 24 22 19 18 18 18 22 22 19
19 19 20 19 20 20 21 23 29 29 18 18 22 24 24 30 35 35 37 38 30 33 29 30 28 30 32 33 33 33 34 30 27 26 23 21 18 18 17 17 20 18 17
16 16 17 19 21 19 20 20 21 24 29 29 28 26 28 30 34 31 34 35 37 34 28 29 30 31 34 34 35 34 37 36 35 23 22 21 18 17 15 15 19 18 19
16 17 17 19 19 20 20 19 20 21 24 27 30 29 31 30 31 27 30 26 28 29 30 29 32 32 33 35 36 36 35 35 34 37 25 20 18 17 17 18 20 22 21
14 15 16 18 20 20 20 20 20 20 22 24 25 27 32 32 29 30 26 26 26 28 29 29 32 33 33 35 37 36 36 35 36 33 34 34 21 18 18 17 18 16 18
15 16 16 17 19 20 20 21 21 21 20 22 24 26 28 27 24 24 27 26 26 29 31 32 31 33 32 35 36 36 35 33 34 34 34 34 36 21 18 17 16 18 18
15 16 17 17 18 19 21 21 22 23 22 22 25 27 26 23 23 24 24 25 27 27 29 31 31 31 31 33 36 36 35 35 36 38 37 36 34 35 20 16 13 13 14
16 17 18 19 18 19 21 22 23 24 24 25 26 26 26 24 24 25 26 26 28 28 32 32 31 32 32 34 34 32 34 35 37 42 36 37 31 30 30 19 14 12 13
17 19 19 20 21 21 22 23 25 25 26 27 28 27 27 27 27 28 29 29 28 29 33 34 34 33 38 38 38 35 38 39 40 40 35 35 31 30 28 23 15 11 14
19 20 20 20 22 23 23 24 26 26 27 28 30 29 31 31 31 31 32 32 31 30 36 36 36 36 37 37 38 39 39 40 38 39 36 33 32 30 27 22 16 8 9
21 20 20 21 22 23 24 25 27 27 28 29 30 32 32 33 34 34 35 35 34 37 38 37 37 35 36 37 39 39 40 37 36 37 33 31 30 29 27 24 19 9 8
Wind_Direction
9 11 8 9 15 7 3 358 352 350 350 346 338 322 311 305 294 265 256 253 249 247 244 241 242 242 240 239 237 237 236 232 243 251 248 252 253 245 239 236 237 239 242
3 4 2 358 3 2 357 354 348 343 346 343 336 332 327 314 306 309 282 267 265 260 256 249 247 247 241 240 239 238 237 235 236 248 247 246 242 244 243 238 236 235 234
4 1 359 2 1 357 350 354 343 340 344 338 333 331 324 325 324 316 309 308 284 263 257 255 255 248 247 243 243 241 241 238 235 235 245 242 237 235 231 231 234 233 230
3 3 4 358 355 352 351 347 344 347 338 333 327 332 327 325 327 330 328 316 304 304 281 261 256 253 251 249 246 246 240 235 233 237 241 239 232 226 225 220 221 225 227
358 359 355 348 348 348 346 345 342 339 336 328 325 336 329 328 331 329 329 323 315 304 296 292 267 258 253 251 252 254 245 240 240 236 239 240 217 209 211 224 222 219 224
356 352 349 347 343 342 344 343 346 345 338 336 337 334 325 326 323 326 323 319 313 307 300 294 287 284 270 263 258 254 252 248 241 238 245 232 228 222 222 217 215 176 211
350 348 347 344 342 341 337 334 332 333 336 336 334 327 322 322 320 321 320 316 309 303 300 301 295 287 283 280 268 265 263 254 251 252 250 240 237 224 224 218 212 209 211
350 348 349 345 342 339 337 337 335 335 333 332 329 326 322 319 321 323 324 319 313 307 304 301 298 296 291 288 285 278 268 257 252 251 251 253 243 236 226 224 216 213 207
355 350 348 346 342 341 342 340 338 336 334 333 330 329 327 325 326 325 326 319 312 307 306 303 298 295 296 296 293 289 282 271 265 252 246 255 250 247 233 220 213 184 195
353 345 346 344 342 341 341 340 337 336 333 333 332 333 330 326 333 329 329 321 310 307 307 305 301 297 300 302 297 295 278 274 280 265 247 255 261 251 244 224 218 204 201
347 347 349 352 345 344 342 342 339 340 339 340 337 335 333 331 330 332 332 336 326 316 304 301 301 300 301 299 295 289 286 293 292 278 260 249 249 248 236 233 219 212 203
349 351 357 360 355 348 343 342 341 340 337 334 332 332 335 336 335 334 333 329 325 319 309 305 299 296 294 293 291 286 288 293 285 281 267 257 247 236 234 229 225 221 218
354 358 358 357 352 349 340 339 339 340 337 335 337 337 337 339 337 339 336 333 327 320 309 301 298 294 288 287 285 283 283 282 276 266 263 259 253 242 243 230 225 222 219
355 355 350 344 341 340 340 339 335 334 332 337 338 338 335 339 340 341 337 335 333 328 323 310 298 286 281 278 281 279 273 270 265 261 260 261 253 237 225 220 205 196 199
350 349 346 341 338 334 336 332 327 325 329 332 336 339 336 340 339 338 339 340 339 337 334 338 341 329 306 283 277 276 274 274 273 272 267 258 237 218 211 205 201 185 198
350 348 347 339 337 336 332 327 330 323 330 334 336 339 336 336 337 339 341 342 347 350 349 348 345 343 341 334 336 310 288 280 277 276 270 255 234 213 210 200 202 199 203
350 348 345 341 335 333 333 332 328 331 335 337 341 343 344 340 343 342 342 343 354 360 355 348 345 343 340 338 336 331 333 310 292 279 274 264 243 229 210 201 204 204 209
349 351 346 340 336 331 328 325 325 326 329 333 340 344 345 347 347 345 347 349 351 359 356 346 340 341 341 339 337 335 334 331 330 292 280 269 251 232 220 216 209 204 206
351 350 344 342 344 339 336 329 330 327 326 325 332 340 343 345 346 349 357 355 346 343 343 342 340 337 341 338 337 336 336 335 333 344 301 279 260 237 234 227 220 212 205
349 347 344 344 342 343 342 333 331 330 328 327 328 330 335 342 348 346 346 347 342 339 338 338 338 335 338 339 336 336 337 340 341 344 336 333 279 253 243 238 223 212 208
343 341 342 341 342 339 337 336 331 327 322 320 318 324 335 340 335 333 334 338 337 336 335 334 335 334 335 337 336 335 337 335 338 339 340 336 333 287 255 243 229 218 212
337 335 337 340 336 335 335 334 331 328 320 316 319 323 333 333 329 328 327 328 331 329 331 330 328 331 331 334 334 331 332 332 336 335 336 334 329 329 283 252 233 215 198
334 334 333 332 333 331 330 329 329 328 322 320 320 320 324 325 324 322 321 324 324 326 332 332 328 327 330 330 333 329 327 326 327 329 328 331 328 326 326 291 238 208 193
330 329 324 324 326 325 324 322 323 324 323 321 320 320 319 319 319 319 321 321 322 324 330 333 331 329 332 335 337 336 331 331 332 331 334 331 329 330 326 319 294 235 195
319 318 318 319 319 319 318 317 318 320 320 321 321 320 320 321 320 321 322 324 324 323 329 334 333 334 338 339 342 344 344 339 343 336 339 339 335 335 331 326 310 251 180
310 313 314 315 315 315 314 314 315 316 316 318 318 319 320 320 321 321 324 326 325 325 331 330 334 336 338 340 342 344 346 342 336 339 344 343 341 340 342 335 326 292 217
Height
805 802 799 795 790 789 787 784 782 779 774 771 768 764 761 759 757 754 751 749 748 746 744 743 742 741 739 740 738 737 736 735 727 727 729 731 731 730 730 732 734 736 737
809 804 800 797 790 786 784 781 780 777 771 768 768 763 758 754 751 751 746 743 742 738 735 734 730 731 727 725 725 724 722 720 719 717 718 719 718 718 717 720 723 724 725
807 805 801 796 788 786 785 777 778 776 767 767 765 761 759 753 748 744 742 736 735 728 726 724 719 719 715 713 713 708 707 706 704 703 700 705 705 704 706 707 710 712 711
805 801 797 794 791 789 785 782 779 770 770 766 765 756 754 751 745 741 736 732 727 720 718 713 708 707 704 700 697 697 694 692 692 691 688 690 692 690 694 694 697 697 698
807 804 801 798 795 791 787 783 778 774 768 766 762 749 750 747 742 738 732 725 719 713 710 708 697 693 691 688 688 685 684 681 680 676 677 677 675 680 678 679 682 683 687
809 806 801 797 794 790 783 779 774 770 768 762 754 746 748 743 739 734 736 723 716 711 701 698 693 687 679 676 674 674 674 670 667 666 659 659 659 659 661 661 666 670 678
809 806 803 798 792 789 784 781 776 770 762 757 754 752 747 741 739 733 731 722 712 705 700 690 683 677 674 669 664 661 660 655 655 653 648 645 646 643 647 651 649 649 647
809 804 800 795 790 785 780 775 769 764 760 755 753 750 745 741 734 728 722 713 703 698 690 684 678 670 667 666 662 655 647 641 634 635 637 634 633 630 629 630 630 633 634
806 803 798 793 789 784 779 773 768 764 760 756 752 746 740 734 729 724 716 709 701 694 687 680 673 666 662 660 655 645 635 622 622 619 620 622 619 619 616 620 624 630 631
804 801 797 794 789 783 778 772 767 763 758 753 747 743 737 730 726 723 716 706 696 689 679 670 666 660 655 652 647 641 627 613 618 611 607 605 604 606 607 607 609 608 614
804 800 796 791 787 782 777 772 766 760 755 749 744 740 735 731 726 721 716 708 700 686 673 662 655 651 648 645 639 631 619 616 608 601 593 590 591 593 593 594 596 596 600
802 798 792 788 784 781 776 770 765 760 756 751 745 740 735 729 722 716 710 705 695 685 671 660 651 645 638 631 626 617 610 606 597 592 585 577 579 576 580 580 581 581 582
799 793 789 785 783 779 776 771 765 761 758 751 744 737 730 725 718 712 704 696 689 679 666 654 643 633 624 616 610 605 601 594 587 581 573 567 568 567 569 570 571 574 575
795 791 788 785 781 778 775 771 767 763 758 751 744 737 730 723 715 707 699 690 680 669 656 642 631 622 613 604 596 591 586 580 575 566 562 557 557 557 558 560 563 565 573
794 791 787 785 781 776 773 770 766 764 760 752 746 740 731 723 717 710 700 689 678 670 655 640 626 615 602 593 586 580 575 569 562 557 552 548 546 547 548 550 553 557 562
792 789 785 782 779 775 770 764 764 761 756 752 747 740 733 728 718 710 700 690 680 668 657 648 637 628 617 605 594 576 568 561 556 550 545 543 540 540 541 543 546 547 551
790 787 784 782 779 775 770 765 754 749 750 746 742 736 731 724 714 707 699 689 678 667 662 654 646 636 625 614 603 591 578 561 553 546 541 538 535 535 535 536 539 542 542
788 786 783 781 778 774 771 766 761 752 739 736 735 732 727 721 713 706 697 685 672 664 663 659 649 640 630 620 608 597 583 569 555 543 537 534 531 530 530 529 531 532 536
786 783 781 778 775 772 768 764 759 753 746 737 729 726 723 719 711 705 696 691 685 676 668 660 652 643 633 624 614 602 591 577 564 550 537 532 528 526 524 523 524 525 528
783 781 779 775 772 768 764 761 757 752 746 740 734 729 720 715 707 702 698 693 688 681 671 662 654 646 637 627 617 607 594 581 570 559 548 537 526 523 520 519 518 519 521
779 777 775 772 769 767 763 759 756 751 746 741 736 730 726 719 711 706 700 693 688 680 672 663 654 648 640 630 621 612 601 590 580 568 556 545 535 522 518 515 514 514 516
777 775 771 769 767 763 759 756 753 748 744 739 733 727 723 716 711 706 700 694 687 681 674 664 656 648 642 633 624 615 605 594 582 571 562 550 539 529 516 513 511 511 512
774 770 767 766 763 759 756 752 749 745 740 735 730 723 718 713 708 702 697 691 684 677 670 662 654 646 639 633 625 618 608 597 587 578 566 554 543 532 523 512 508 508 509
770 767 765 761 758 754 751 747 744 740 736 730 725 719 714 708 703 698 692 686 679 672 666 658 651 644 636 628 621 614 607 597 588 577 570 558 545 534 526 517 511 506 505
766 763 760 756 752 749 745 742 738 734 730 725 719 714 708 703 697 691 686 680 673 667 660 653 646 640 633 626 618 610 601 593 586 578 569 559 548 538 530 521 514 510 507
761 758 754 750 747 744 740 736 732 728 723 719 714 709 703 697 691 685 679 673 667 661 654 648 642 635 629 621 613 606 597 590 585 577 570 562 553 543 533 525 517 513 512